SCP
0 0 0 0 0 0 0 0 0 0 0 0 0 0 0 0 0 0 0 0 0 0 0 0 0 1 2 2 2 2 1 1 1 1 1 1 2 1 1 1 1 1 1 1
0 0 0 0 0 0 0 0 0 0 -0 0 -0 0 0 0 0 0 0 0 0 0 0 0 0 0 0 1 2 2 2 2 1 1 1 1 1 1 1 1 1 1 1 1
0 0 0 0 0 0 0 0 0 0 -0 0 0 -0 0 0 0 0 0 0 0 0 0 0 0 0 0 0 0 0 0 0 2 1 0 0 0 0 0 0 0 0 0 0
0 0 0 0 0 0 0 0 0 0 0 0 0 0 0 0 0 0 0 0 0 0 0 0 0 0 0 0 0 0 0 0 0 0 0 0 0 0 0 0 0 0 0 0
0 0 0 0 0 0 0 0 0 0 0 0 -0 0 0 0 0 0 0 0 0 0 0 0 0 0 0 0 0 0 0 0 0 0 0 0 0 0 0 0 0 0 0 0
0 0 0 0 0 0 0 0 0 0 0 -0 0 0 -0 0 0 0 0 0 0 0 0 0 0 0 0 0 0 0 0 0 0 0 0 0 0 0 0 0 0 0 0 0
0 0 0 0 0 0 0 0 0 0 0 0 0 0 0 0 0 0 0 0 0 0 0 0 0 0 0 0 0 0 0 0 0 0 0 0 0 0 0 0 0 0 0 0
0 0 0 0 0 0 0 0 0 0 0 0 0 0 0 0 0 0 0 0 0 0 0 0 0 0 0 0 0 0 0 0 0 0 0 0 0 0 0 0 0 0 0 0
0 0 0 0 0 0 0 0 0 0 0 0 0 0 0 0 0 0 0 0 0 0 0 0 0 0 0 0 0 0 0 0 0 0 0 0 0 0 0 0 0 0 0 0
0 0 0 0 0 0 0 0 0 0 0 0 0 0 0 0 0 0 0 0 0 0 0 0 0 0 0 0 0 0 0 0 0 0 0 0 0 0 0 0 0 0 0 0
0 0 0 0 0 0 0 0 0 0 0 0 0 0 0 0 0 0 0 0 0 0 0 0 0 0 0 0 0 0 0 0 0 0 0 0 0 0 0 0 0 0 0 0
0 0 0 0 0 0 0 0 0 0 0 0 0 -0 0 0 0 0 0 0 0 0 0 0 0 0 0 0 0 0 0 0 0 0 0 0 0 0 0 0 0 0 0 0
0 0 0 0 0 0 0 0 0 0 0 0 0 0 0 0 0 0 0 0 0 0 0 0 0 0 0 0 0 0 0 0 0 0 0 0 0 0 0 0 0 0 0 0
0 0 0 0 0 0 0 0 0 0 0 0 0 0 0 0 0 0 0 0 0 0 0 0 0 0 0 0 0 0 0 0 0 0 0 0 0 0 0 0 0 0 0 0
0 0 0 0 0 0 0 0 0 0 0 0 0 0 0 0 0 0 0 0 0 0 0 0 0 0 0 0 0 0 0 0 0 0 0 0 0 0 0 0 0 0 0 0
0 0 0 0 0 0 0 0 0 0 0 0 0 0 0 0 0 0 0 0 0 0 0 0 0 0 0 0 0 0 0 0 0 0 0 0 0 0 0 0 0 0 0 0
0 0 0 0 0 0 0 0 0 0 0 0 0 0 0 0 0 0 0 0 0 0 0 0 0 0 0 0 0 0 0 0 0 0 0 0 0 0 0 0 0 0 0 0
0 0 0 0 0 0 0 0 0 0 0 0 0 0 0 0 0 0 0 0 0 0 0 0 0 0 0 0 0 0 0 0 0 0 0 0 0 0 0 0 0 0 0 0
0 0 0 0 0 0 0 0 0 0 0 0 0 0 0 0 0 0 0 0 0 0 0 0 0 0 0 0 0 0 0 0 0 0 0 0 0 0 0 0 0 0 0 0
0 0 0 0 0 0 0 0 0 0 0 0 0 0 0 0 0 0 0 0 0 0 0 0 0 0 0 0 0 0 0 0 0 0 0 0 0 0 0 0 0 0 0 0
0 0 0 0 0 0 0 0 0 0 0 0 0 0 -0 0 -0 -0 0 0 0 0 0 0 0 0 0 0 0 0 0 0 0 0 0 0 0 0 0 0 0 0 0 0
-0 0 0 0 0 0 0 0 0 0 0 0 0 0 0 0 0 0 0 0 0 0 0 0 0 0 0 0 0 0 0 0 0 0 0 0 0 0 0 0 0 0 0 0
-0 0 0 0 0 0 0 0 0 0 0 0 0 0 0 0 0 0 0 0 0 0 0 0 0 0 0 0 0 0 0 0 0 0 0 0 0 0 0 0 0 0 0 0
-0 0 0 0 0 0 0 0 0 0 0 0 0 0 0 0 0 0 0 0 0 0 0 0 0 0 0 0 0 0 0 0 0 0 0 0 0 0 0 0 0 0 0 0
0 -0 -0 -0 0 0 0 0 0 0 0 0 0 0 0 0 0 0 0 0 0 0 0 0 0 0 0 0 0 0 0 0 0 0 0 0 0 0 0 0 0 0 0 0
0 0 0 0 0 0 0 0 0 0 0 0 0 0 0 0 0 0 0 0 0 0 0 0 0 0 0 0 0 0 0 0 0 0 0 0 0 0 0 0 0 0 0 0
Wind_Speed_500mb
21 11 27 38 38 29 32 10 17 8 26 3 19 21 33 47 36 41 56 57 73 66 54 46 40 36 38 39 51 59 56 59 62 63 56 53 55 58 54 51 46 46 44 44
19 54 30 29 28 28 29 32 25 30 44 13 29 30 22 22 25 49 47 52 74 64 58 51 45 37 35 50 55 59 55 60 64 55 55 48 49 46 54 54 50 48 44 44
49 28 32 32 35 34 38 40 32 32 41 36 14 29 15 16 17 32 51 65 84 85 74 61 53 45 40 43 53 54 53 54 54 46 36 37 37 39 43 44 47 45 43 45
38 43 35 44 48 39 46 37 37 39 26 23 11 20 17 12 20 14 38 52 73 67 70 70 62 52 48 47 49 52 50 49 43 38 34 30 31 31 29 28 24 24 22 20
28 35 59 58 59 49 32 27 33 35 34 32 48 17 13 25 28 22 22 46 82 88 87 80 72 65 59 56 52 47 42 35 46 40 38 36 38 32 24 22 20 19 18 20
52 28 48 70 52 49 28 14 28 35 31 41 26 29 37 32 19 16 25 40 76 86 90 85 77 72 69 62 57 49 44 48 49 41 38 31 31 28 22 19 19 22 25 26
37 55 44 18 42 44 39 25 12 12 16 36 25 22 39 14 38 37 21 32 69 90 90 94 88 82 72 66 58 50 48 53 46 41 37 31 28 23 21 20 21 21 21 22
42 33 69 33 43 28 41 39 15 24 29 25 22 30 15 27 36 34 57 57 57 80 83 88 90 84 74 62 54 50 52 50 44 39 34 28 23 17 13 13 16 20 23 28
25 45 8 59 36 40 38 44 46 6 7 3 15 10 7 15 18 23 22 42 65 75 87 97 90 76 68 64 60 54 49 42 36 30 26 19 14 11 11 12 15 18 23 28
20 10 19 34 49 50 35 18 26 27 28 35 15 13 12 10 32 19 15 35 65 74 83 91 85 77 68 63 58 48 41 35 30 26 19 13 10 11 12 14 17 20 23 26
55 23 10 33 49 61 32 38 15 24 15 29 26 26 16 25 17 17 18 53 74 75 85 97 85 75 70 63 55 45 39 34 29 22 17 15 13 11 13 17 21 22 22 25
71 28 32 31 12 42 65 54 43 18 36 19 13 50 6 13 17 21 28 54 58 74 99 99 91 81 75 64 52 44 38 33 25 20 19 16 17 17 19 20 24 27 30 33
42 26 17 30 35 22 16 53 59 21 9 49 23 45 18 11 16 34 46 51 59 70 77 90 86 79 69 59 47 41 35 30 24 20 20 23 23 23 24 26 27 29 31 33
49 40 49 37 62 30 30 36 47 53 28 39 55 8 7 15 25 23 37 59 69 85 94 87 76 72 65 55 48 44 41 34 29 27 25 24 23 23 25 24 26 30 34 39
35 48 51 69 34 28 41 57 46 46 73 40 61 47 24 25 30 38 69 68 67 73 88 90 87 74 63 55 50 50 44 37 32 28 26 25 23 22 20 23 28 33 37 38
50 23 48 60 69 54 18 47 50 57 58 43 27 35 21 12 36 40 61 74 77 79 78 85 83 75 68 64 63 55 47 38 31 28 23 23 21 24 28 29 27 24 24 25
40 42 37 59 63 48 49 44 62 57 48 63 47 65 33 33 37 43 60 77 81 82 87 93 91 83 76 74 67 58 45 33 26 24 21 18 21 25 27 22 22 27 22 25
24 38 36 36 44 50 15 53 56 65 66 62 55 41 38 40 57 76 91 91 86 87 87 96 93 85 81 76 67 56 44 33 24 19 16 12 16 20 18 13 10 13 21 25
41 35 23 23 44 6 20 21 48 41 55 52 57 45 48 51 46 46 89 103 108 100 106 109 99 91 88 77 63 51 41 30 21 16 12 10 15 17 12 9 17 18 21 24
53 43 27 24 26 36 24 51 42 15 32 50 50 45 30 32 32 30 89 95 99 107 99 108 97 96 88 75 64 52 43 35 27 23 15 14 16 16 16 13 16 17 20 21
15 15 35 12 15 6 14 33 39 34 35 47 58 59 50 43 70 75 78 86 95 101 103 101 102 99 85 70 60 54 47 40 31 36 25 14 10 10 17 19 20 21 23 24
18 13 13 13 7 6 19 41 54 49 5 21 68 73 80 83 46 64 83 95 103 101 105 107 102 88 73 66 60 52 47 40 42 40 30 22 14 13 16 22 22 26 28 28
13 12 4 15 14 11 49 49 58 49 19 19 48 62 69 65 63 81 88 96 104 113 113 106 93 76 70 65 53 45 46 55 46 41 37 28 19 16 18 22 27 30 32 29
30 16 0 8 9 7 18 22 39 42 37 44 65 72 71 58 77 74 82 87 94 100 102 90 81 77 69 56 50 48 55 55 46 44 43 32 22 16 16 19 25 28 31 31
7 5 33 7 13 10 2 35 52 38 46 48 52 69 77 88 79 90 79 80 86 94 88 79 74 67 58 50 43 45 51 50 49 48 38 32 25 19 19 21 23 25 26 30
12 13 18 24 19 10 9 42 57 55 56 66 72 67 69 101 85 80 79 87 91 85 77 70 63 58 50 47 51 50 47 44 46 46 41 34 29 25 27 32 24 26 27 31
Wind_Direction_500mb
196 200 210 212 214 221 234 217 230 273 264 251 261 259 258 260 231 228 245 224 185 173 173 184 197 198 177 177 198 204 212 203 201 199 202 212 224 228 234 234 234 237 238 240
224 230 208 218 224 225 231 244 252 279 278 257 268 262 265 283 231 217 222 173 172 170 176 186 196 201 196 178 188 198 204 201 202 206 208 217 230 234 237 240 240 240 239 241
220 227 217 215 224 225 230 231 244 242 278 280 260 267 259 280 256 213 213 191 180 181 182 181 182 193 197 188 184 187 189 192 200 205 206 206 211 221 230 235 238 244 249 249
244 229 225 217 223 211 233 218 235 253 254 260 172 273 250 254 259 227 223 175 181 179 181 183 187 191 193 185 185 189 192 191 187 189 189 199 200 183 183 180 177 194 201 212
212 180 207 225 217 208 236 212 225 248 260 269 259 278 252 216 233 245 229 188 188 193 193 188 189 185 178 174 174 172 177 179 179 175 173 171 172 174 169 170 191 207 227 242
228 217 202 224 222 213 211 231 226 238 248 256 237 239 243 229 217 224 228 210 184 188 190 186 181 178 172 173 170 165 162 164 168 183 177 174 173 182 191 205 219 235 249 257
220 231 242 229 215 221 201 203 231 233 222 247 189 224 235 225 217 211 211 206 191 189 184 184 178 174 171 174 178 176 167 163 173 180 179 183 186 191 199 207 215 225 237 247
212 231 221 209 222 199 202 191 199 208 224 255 236 242 230 224 232 236 233 241 197 177 179 180 177 174 172 176 182 179 170 164 167 174 178 182 190 201 220 240 249 252 254 253
192 231 217 202 204 199 206 211 212 250 182 234 229 289 276 194 237 223 215 165 165 170 176 179 179 177 174 177 178 176 168 169 173 176 182 187 202 223 240 250 260 268 270 275
235 252 209 194 202 219 216 178 188 226 221 238 233 240 224 212 212 207 215 169 169 167 168 174 175 172 170 173 171 174 173 175 179 185 191 205 235 249 257 266 276 276 278 276
221 233 260 188 198 205 207 220 218 208 192 225 252 255 195 206 206 204 170 167 167 165 166 171 170 167 165 167 168 172 173 179 183 188 206 223 238 259 275 281 280 289 296 294
208 223 236 229 159 209 216 216 208 203 215 237 226 250 295 186 195 153 162 164 169 162 166 169 168 167 166 165 168 173 177 179 184 203 211 233 252 261 270 277 287 292 300 300
193 214 229 235 257 270 224 215 218 214 117 231 210 248 186 127 124 162 151 160 161 157 155 161 162 162 165 166 172 176 175 182 190 202 218 244 257 271 277 276 276 277 279 279
173 201 210 215 218 202 217 213 211 209 217 230 228 208 212 160 152 157 163 160 157 159 161 164 169 175 174 175 177 172 175 182 189 209 235 249 267 272 271 264 266 269 272 277
207 212 207 228 237 195 212 214 204 203 218 201 233 223 212 187 173 174 172 161 159 163 171 179 178 175 174 174 177 179 184 191 206 225 237 249 257 267 272 277 276 274 275 281
202 223 203 218 229 233 232 218 203 215 216 228 218 233 186 195 182 170 168 169 173 175 176 176 176 173 175 179 179 182 189 198 211 222 233 245 264 286 294 290 284 289 292 292
207 212 198 220 220 224 229 220 205 213 205 216 212 226 175 202 181 176 173 175 177 180 179 181 178 179 183 184 185 184 190 200 210 221 233 260 288 296 291 287 304 306 301 302
263 230 211 214 209 220 164 218 216 217 215 212 226 204 192 196 186 180 179 179 185 185 181 183 182 184 185 184 185 188 195 196 200 214 233 265 285 303 305 258 290 292 286 290
233 233 235 211 199 125 177 204 199 201 226 212 214 201 203 203 194 200 186 192 193 187 191 188 187 187 181 181 184 187 186 192 203 209 224 259 292 293 315 330 323 306 301 294
222 206 232 185 196 213 197 212 200 170 226 208 208 205 180 152 196 210 204 202 194 192 183 185 185 184 181 183 189 191 188 196 215 230 245 267 277 269 249 239 284 293 293 265
217 213 219 236 183 248 230 175 149 183 226 208 198 201 189 199 209 211 194 187 186 182 184 183 181 181 182 184 186 184 189 202 216 223 229 242 263 285 255 244 264 274 274 270
234 239 203 177 204 233 158 144 165 199 164 166 190 193 195 208 208 202 186 175 178 174 178 179 177 177 179 182 183 189 200 210 204 214 221 229 250 290 271 251 244 257 261 268
243 191 289 224 201 205 169 175 195 183 170 158 180 187 180 180 179 167 163 166 169 174 172 176 175 174 179 184 192 199 211 199 201 214 216 224 241 274 290 261 236 242 251 257
243 215 139 285 262 254 131 156 180 186 183 170 183 184 185 155 153 152 154 156 157 161 167 169 170 174 180 190 201 209 205 203 205 213 211 220 232 262 281 263 249 241 243 246
217 286 211 246 283 1 55 183 180 176 178 171 173 172 167 159 151 150 149 150 153 159 164 169 172 174 179 185 192 192 199 202 208 210 215 217 234 260 287 276 255 241 246 256
217 209 212 219 202 174 179 157 166 153 148 156 152 137 148 154 147 147 146 154 158 159 160 162 163 169 173 175 178 185 192 196 201 207 215 228 246 259 279 297 271 250 235 244
Wind_Speed_850mb
21 11 27 38 38 29 32 10 17 8 26 3 19 21 33 47 36 41 56 57 73 66 54 46 40 36 38 39 51 59 56 59 62 63 56 53 55 58 54 51 46 46 44 44
19 54 30 29 28 28 29 32 25 30 44 13 29 30 22 22 25 49 47 52 74 64 58 51 45 37 35 50 55 59 55 60 64 55 55 48 49 46 54 54 50 48 44 44
49 28 32 32 35 34 38 40 32 32 41 36 14 29 15 16 17 32 51 65 84 85 74 61 53 45 40 43 53 54 53 54 54 46 36 37 37 39 43 44 47 45 43 45
38 43 35 44 48 39 46 37 37 39 26 23 11 20 17 12 20 14 38 52 73 67 70 70 62 52 48 47 49 52 50 49 43 38 34 30 31 31 29 28 24 24 22 20
28 35 59 58 59 49 32 27 33 35 34 32 48 17 13 25 28 22 22 46 82 88 87 80 72 65 59 56 52 47 42 35 46 40 38 36 38 32 24 22 20 19 18 20
52 28 48 70 52 49 28 14 28 35 31 41 26 29 37 32 19 16 25 40 76 86 90 85 77 72 69 62 57 49 44 48 49 41 38 31 31 28 22 19 19 22 25 26
37 55 44 18 42 44 39 25 12 12 16 36 25 22 39 14 38 37 21 32 69 90 90 94 88 82 72 66 58 50 48 53 46 41 37 31 28 23 21 20 21 21 21 22
42 33 69 33 43 28 41 39 15 24 29 25 22 30 15 27 36 34 57 57 57 80 83 88 90 84 74 62 54 50 52 50 44 39 34 28 23 17 13 13 16 20 23 28
25 45 8 59 36 40 38 44 46 6 7 3 15 10 7 15 18 23 22 42 65 75 87 97 90 76 68 64 60 54 49 42 36 30 26 19 14 11 11 12 15 18 23 28
20 10 19 34 49 50 35 18 26 27 28 35 15 13 12 10 32 19 15 35 65 74 83 91 85 77 68 63 58 48 41 35 30 26 19 13 10 11 12 14 17 20 23 26
55 23 10 33 49 61 32 38 15 24 15 29 26 26 16 25 17 17 18 53 74 75 85 97 85 75 70 63 55 45 39 34 29 22 17 15 13 11 13 17 21 22 22 25
71 28 32 31 12 42 65 54 43 18 36 19 13 50 6 13 17 21 28 54 58 74 99 99 91 81 75 64 52 44 38 33 25 20 19 16 17 17 19 20 24 27 30 33
42 26 17 30 35 22 16 53 59 21 9 49 23 45 18 11 16 34 46 51 59 70 77 90 86 79 69 59 47 41 35 30 24 20 20 23 23 23 24 26 27 29 31 33
49 40 49 37 62 30 30 36 47 53 28 39 55 8 7 15 25 23 37 59 69 85 94 87 76 72 65 55 48 44 41 34 29 27 25 24 23 23 25 24 26 30 34 39
35 48 51 69 34 28 41 57 46 46 73 40 61 47 24 25 30 38 69 68 67 73 88 90 87 74 63 55 50 50 44 37 32 28 26 25 23 22 20 23 28 33 37 38
50 23 48 60 69 54 18 47 50 57 58 43 27 35 21 12 36 40 61 74 77 79 78 85 83 75 68 64 63 55 47 38 31 28 23 23 21 24 28 29 27 24 24 25
40 42 37 59 63 48 49 44 62 57 48 63 47 65 33 33 37 43 60 77 81 82 87 93 91 83 76 74 67 58 45 33 26 24 21 18 21 25 27 22 22 27 22 25
24 38 36 36 44 50 15 53 56 65 66 62 55 41 38 40 57 76 91 91 86 87 87 96 93 85 81 76 67 56 44 33 24 19 16 12 16 20 18 13 10 13 21 25
41 35 23 23 44 6 20 21 48 41 55 52 57 45 48 51 46 46 89 103 108 100 106 109 99 91 88 77 63 51 41 30 21 16 12 10 15 17 12 9 17 18 21 24
53 43 27 24 26 36 24 51 42 15 32 50 50 45 30 32 32 30 89 95 99 107 99 108 97 96 88 75 64 52 43 35 27 23 15 14 16 16 16 13 16 17 20 21
15 15 35 12 15 6 14 33 39 34 35 47 58 59 50 43 70 75 78 86 95 101 103 101 102 99 85 70 60 54 47 40 31 36 25 14 10 10 17 19 20 21 23 24
18 13 13 13 7 6 19 41 54 49 5 21 68 73 80 83 46 64 83 95 103 101 105 107 102 88 73 66 60 52 47 40 42 40 30 22 14 13 16 22 22 26 28 28
13 12 4 15 14 11 49 49 58 49 19 19 48 62 69 65 63 81 88 96 104 113 113 106 93 76 70 65 53 45 46 55 46 41 37 28 19 16 18 22 27 30 32 29
30 16 0 8 9 7 18 22 39 42 37 44 65 72 71 58 77 74 82 87 94 100 102 90 81 77 69 56 50 48 55 55 46 44 43 32 22 16 16 19 25 28 31 31
7 5 33 7 13 10 2 35 52 38 46 48 52 69 77 88 79 90 79 80 86 94 88 79 74 67 58 50 43 45 51 50 49 48 38 32 25 19 19 21 23 25 26 30
12 13 18 24 19 10 9 42 57 55 56 66 72 67 69 101 85 80 79 87 91 85 77 70 63 58 50 47 51 50 47 44 46 46 41 34 29 25 27 32 24 26 27 31
Wind_Direction_850mb
196 200 210 212 214 221 234 217 230 273 264 251 261 259 258 260 231 228 245 224 185 173 173 184 197 198 177 177 198 204 212 203 201 199 202 212 224 228 234 234 234 237 238 240
224 230 208 218 224 225 231 244 252 279 278 257 268 262 265 283 231 217 222 173 172 170 176 186 196 201 196 178 188 198 204 201 202 206 208 217 230 234 237 240 240 240 239 241
220 227 217 215 224 225 230 231 244 242 278 280 260 267 259 280 256 213 213 191 180 181 182 181 182 193 197 188 184 187 189 192 200 205 206 206 211 221 230 235 238 244 249 249
244 229 225 217 223 211 233 218 235 253 254 260 172 273 250 254 259 227 223 175 181 179 181 183 187 191 193 185 185 189 192 191 187 189 189 199 200 183 183 180 177 194 201 212
212 180 207 225 217 208 236 212 225 248 260 269 259 278 252 216 233 245 229 188 188 193 193 188 189 185 178 174 174 172 177 179 179 175 173 171 172 174 169 170 191 207 227 242
228 217 202 224 222 213 211 231 226 238 248 256 237 239 243 229 217 224 228 210 184 188 190 186 181 178 172 173 170 165 162 164 168 183 177 174 173 182 191 205 219 235 249 257
220 231 242 229 215 221 201 203 231 233 222 247 189 224 235 225 217 211 211 206 191 189 184 184 178 174 171 174 178 176 167 163 173 180 179 183 186 191 199 207 215 225 237 247
212 231 221 209 222 199 202 191 199 208 224 255 236 242 230 224 232 236 233 241 197 177 179 180 177 174 172 176 182 179 170 164 167 174 178 182 190 201 220 240 249 252 254 253
192 231 217 202 204 199 206 211 212 250 182 234 229 289 276 194 237 223 215 165 165 170 176 179 179 177 174 177 178 176 168 169 173 176 182 187 202 223 240 250 260 268 270 275
235 252 209 194 202 219 216 178 188 226 221 238 233 240 224 212 212 207 215 169 169 167 168 174 175 172 170 173 171 174 173 175 179 185 191 205 235 249 257 266 276 276 278 276
221 233 260 188 198 205 207 220 218 208 192 225 252 255 195 206 206 204 170 167 167 165 166 171 170 167 165 167 168 172 173 179 183 188 206 223 238 259 275 281 280 289 296 294
208 223 236 229 159 209 216 216 208 203 215 237 226 250 295 186 195 153 162 164 169 162 166 169 168 167 166 165 168 173 177 179 184 203 211 233 252 261 270 277 287 292 300 300
193 214 229 235 257 270 224 215 218 214 117 231 210 248 186 127 124 162 151 160 161 157 155 161 162 162 165 166 172 176 175 182 190 202 218 244 257 271 277 276 276 277 279 279
173 201 210 215 218 202 217 213 211 209 217 230 228 208 212 160 152 157 163 160 157 159 161 164 169 175 174 175 177 172 175 182 189 209 235 249 267 272 271 264 266 269 272 277
207 212 207 228 237 195 212 214 204 203 218 201 233 223 212 187 173 174 172 161 159 163 171 179 178 175 174 174 177 179 184 191 206 225 237 249 257 267 272 277 276 274 275 281
202 223 203 218 229 233 232 218 203 215 216 228 218 233 186 195 182 170 168 169 173 175 176 176 176 173 175 179 179 182 189 198 211 222 233 245 264 286 294 290 284 289 292 292
207 212 198 220 220 224 229 220 205 213 205 216 212 226 175 202 181 176 173 175 177 180 179 181 178 179 183 184 185 184 190 200 210 221 233 260 288 296 291 287 304 306 301 302
263 230 211 214 209 220 164 218 216 217 215 212 226 204 192 196 186 180 179 179 185 185 181 183 182 184 185 184 185 188 195 196 200 214 233 265 285 303 305 258 290 292 286 290
233 233 235 211 199 125 177 204 199 201 226 212 214 201 203 203 194 200 186 192 193 187 191 188 187 187 181 181 184 187 186 192 203 209 224 259 292 293 315 330 323 306 301 294
222 206 232 185 196 213 197 212 200 170 226 208 208 205 180 152 196 210 204 202 194 192 183 185 185 184 181 183 189 191 188 196 215 230 245 267 277 269 249 239 284 293 293 265
217 213 219 236 183 248 230 175 149 183 226 208 198 201 189 199 209 211 194 187 186 182 184 183 181 181 182 184 186 184 189 202 216 223 229 242 263 285 255 244 264 274 274 270
234 239 203 177 204 233 158 144 165 199 164 166 190 193 195 208 208 202 186 175 178 174 178 179 177 177 179 182 183 189 200 210 204 214 221 229 250 290 271 251 244 257 261 268
243 191 289 224 201 205 169 175 195 183 170 158 180 187 180 180 179 167 163 166 169 174 172 176 175 174 179 184 192 199 211 199 201 214 216 224 241 274 290 261 236 242 251 257
243 215 139 285 262 254 131 156 180 186 183 170 183 184 185 155 153 152 154 156 157 161 167 169 170 174 180 190 201 209 205 203 205 213 211 220 232 262 281 263 249 241 243 246
217 286 211 246 283 1 55 183 180 176 178 171 173 172 167 159 151 150 149 150 153 159 164 169 172 174 179 185 192 192 199 202 208 210 215 217 234 260 287 276 255 241 246 256
217 209 212 219 202 174 179 157 166 153 148 156 152 137 148 154 147 147 146 154 158 159 160 162 163 169 173 175 178 185 192 196 201 207 215 228 246 259 279 297 271 250 235 244